Overview Statistics Trail Chart Weather Telemetry Raw packets
 

This is the latest recevied weather packets stored in our database for station/object KI4KWR-1. If no packets are shown the sender has not sent any weather packets the latest 10 day(s).

<< 24 25 26 27 28 29 30 >>
Time Temp. Humidity Pressure Rain* Wind** Luminosity Snow
1788054303 24.44° C 81% 989.6 hPa 0 mm - - -
1788053406 24.44° C 77% 989.4 hPa 0 mm - - -
1788052504 25° C 77% 989.1 hPa 0 mm - - -
1788051603 25.56° C 73% 988.9 hPa 0 mm - - -
1788050705 26.67° C 70% 988.9 hPa 0 mm - - -
1788049803 27.22° C 68% 988.9 hPa 0 mm - - -
1788048903 29.44° C 63% 988.8 hPa 0 mm - - -
1788048003 30.56° C 56% 988.7 hPa 0 mm - - -
1788047103 32.22° C 50% 988.6 hPa 0 mm - - -
1788046204 31.67° C 49% 988.6 hPa 0 mm - - -
1788045303 31.67° C 50% 988.5 hPa 0 mm - - -
1788044403 33.33° C 43% 988.4 hPa 0 mm - - -
1788043503 32.78° C 45% 988.4 hPa 0 mm - - -
1788042604 33.89° C 41% 988.5 hPa 0 mm - - -
1788041704 34.44° C 41% 988.5 hPa 0 mm - - -
1788040804 33.33° C 42% 988.6 hPa 0 mm - - -
1788039917 32.78° C 46% 988.7 hPa 0 mm - - -
1788039004 32.22° C 49% 988.8 hPa 0 mm - - -
1788038104 32.22° C 49% 988.8 hPa 0 mm - - -
1788037204 31.67° C 49% 989 hPa 0 mm - - -
1788036303 31.11° C 53% 989.2 hPa 0 mm - - -
1788035404 32.78° C 48% 989.1 hPa 0 mm - - -
1788034513 34.44° C 43% 989.2 hPa 0 mm - - -
1788033605 33.33° C 44% 989.3 hPa 0 mm - - -
1788032704 35° C 40% 989.4 hPa 0 mm - - -

* Rain latest hour (hover to see other rain measurements)
** Current wind speed in m/s (hover to see current wind gust speed)